Temperature
18 18 18 18 18 19 19 20 19 19 18 17 17 17 15 14 14 14 13 13 13 13 12 12 12 12 11 11 11 11 10 10 10 10 10 9 8 8 7 7 7 6 6
17 18 18 18 18 18 18 19 19 19 18 17 18 17 15 14 14 14 13 13 13 12 12 12 12 12 11 11 11 10 10 10 10 10 9 8 8 7 7 6 6 6 5
17 17 17 17 17 17 18 18 18 18 18 17 16 15 14 14 13 13 13 13 13 12 12 12 12 11 11 11 10 10 10 9 9 9 8 8 7 7 7 6 5 5 5
17 17 17 17 17 17 17 17 17 18 17 17 16 15 15 14 14 13 13 13 12 12 12 11 11 11 11 10 10 10 9 9 8 8 7 7 6 5 6 5 5 4 4
17 17 17 17 17 17 17 17 17 17 17 16 15 15 15 15 14 13 13 12 12 11 11 11 11 11 10 10 10 9 9 8 8 7 6 6 5 4 3 3 4 4 3
17 17 16 16 16 16 16 17 17 17 16 15 14 14 14 15 14 13 12 12 12 11 11 10 10 10 10 10 9 9 8 7 7 6 6 5 4 3 2 2 2 3 3
16 16 15 15 15 15 15 16 16 16 15 14 13 13 13 14 14 13 12 12 12 11 10 10 10 10 10 9 9 8 8 7 6 6 5 4 3 3 2 1 1 1 2
16 15 14 14 14 14 15 15 15 15 14 13 12 12 11 13 13 12 12 12 12 11 10 10 9 9 9 9 8 8 7 6 5 5 4 4 3 2 2 1 -0 -1 -1
15 14 14 13 13 14 14 14 14 14 13 12 11 11 11 11 11 11 11 12 11 10 10 9 9 9 9 8 7 7 6 5 5 4 3 3 2 2 1 0 -1 -2 -4
14 14 13 13 13 13 14 14 14 13 12 11 10 10 10 10 11 11 11 11 11 10 9 9 8 8 8 7 7 6 5 5 4 3 3 2 2 1 1 -0 -1 -3 -4
14 13 12 12 12 12 13 13 13 12 11 10 10 10 10 10 10 10 10 10 10 9 9 8 8 8 7 7 6 5 5 4 3 2 2 1 1 0 -0 -1 -2 -3 -5
13 12 11 11 11 12 12 12 12 11 10 10 9 9 10 10 9 9 9 9 9 9 8 8 8 7 6 6 5 4 4 3 2 2 1 1 -0 -1 -2 -3 -4 -5 -6
11 11 10 10 10 11 11 11 11 10 10 9 9 9 9 9 8 8 8 8 8 8 7 7 7 6 5 5 4 3 3 2 2 1 0 -0 -1 -2 -3 -4 -5 -6 -7
10 9 9 9 9 9 9 9 9 9 9 8 8 8 8 8 7 7 7 7 7 7 7 6 6 5 4 4 3 3 2 2 1 0 -0 -1 -2 -3 -5 -6 -6 -7 -8
8 8 8 8 8 8 8 8 8 8 8 7 7 7 7 6 6 6 6 6 7 7 6 5 5 4 3 3 2 2 1 1 0 -0 -1 -2 -4 -5 -6 -7 -7 -7 -8
7 7 7 7 7 7 7 7 7 7 6 6 5 5 5 5 5 5 5 6 6 6 5 4 4 3 3 2 1 1 1 0 -0 -1 -2 -4 -4 -6 -7 -7 -8 -8 -8
7 7 6 6 6 6 6 6 6 5 4 4 4 4 4 4 4 4 5 6 5 5 4 3 3 2 2 1 1 0 -0 -1 -1 -2 -4 -5 -6 -7 -7 -8 -8 -8 -8
6 5 5 4 4 4 4 4 3 3 2 2 2 3 3 3 4 4 5 5 4 3 3 2 2 1 1 0 -0 -1 -1 -2 -2 -4 -5 -6 -7 -7 -8 -8 -8 -8 -8
4 4 3 3 3 2 2 2 1 1 1 1 2 2 3 4 4 4 4 3 3 2 2 1 1 0 -0 -0 -1 -2 -2 -3 -4 -5 -6 -7 -8 -8 -8 -8 -9 -9 -8
2 2 2 1 1 0 0 1 0 1 1 2 3 3 3 4 4 3 3 2 2 2 1 0 -0 -1 -1 -2 -2 -3 -3 -4 -5 -5 -6 -7 -8 -8 -9 -9 -9 -9 -9
1 1 0 0 -0 0 1 1 1 2 3 3 3 3 3 3 3 3 2 2 1 0 0 -0 -1 -1 -2 -3 -4 -4 -5 -7 -7 -7 -7 -7 -8 -9 -9 -9 -9 -9 -9
0 0 0 0 0 1 2 3 3 3 3 3 3 3 2 2 2 2 1 0 0 -0 -1 -1 -2 -3 -4 -4 -5 -6 -7 -8 -8 -8 -8 -8 -9 -9 -9 -9 -9 -9 -9
1 1 1 1 1 2 4 5 3 3 3 3 3 2 2 1 1 0 0 -0 -1 -1 -2 -2 -3 -3 -4 -5 -6 -7 -7 -8 -9 -9 -9 -9 -9 -9 -9 -9 -9 -9 -9
1 2 2 3 2 3 4 4 3 3 3 2 2 1 1 0 -0 -0 -1 -1 -1 -2 -3 -3 -3 -4 -5 -6 -7 -7 -7 -8 -8 -8 -9 -9 -9 -9 -9 -9 -9 -9 -9
2 3 4 4 3 3 3 3 2 2 2 1 1 0 -0 -0 -1 -1 -2 -2 -2 -3 -3 -4 -4 -5 -6 -6 -8 -8 -9 -9 -9 -10 -9 -9 -9 -9 -9 -9 -9 -9 -9
3 4 4 4 3 3 2 2 1 1 1 1 0 -0 -1 -1 -1 -2 -2 -3 -3 -4 -4 -5 -6 -6 -7 -8 -8 -8 -9 -9 -10 -10 -10 -10 -10 -10 -10 -9 -9 -9 -9
Wind_Speed
12 10 10 10 10 10 10 10 12 13 11 11 12 11 9 7 7 8 12 15 16 16 12 7 7 6 6 6 6 4 4 4 4 3 3 2 2 3 3 3 2 2 5
13 13 12 12 12 12 11 10 10 13 13 12 11 8 6 6 6 7 9 13 15 15 13 9 8 8 7 7 6 4 3 2 4 3 2 3 2 2 3 2 3 2 0
14 13 13 13 12 14 13 11 10 11 14 14 10 9 7 6 4 7 7 8 13 14 13 10 9 9 7 6 6 4 4 3 2 4 4 3 2 4 4 2 1 0 1
12 12 12 13 13 13 13 13 11 11 13 16 16 17 12 9 7 7 7 9 10 12 14 13 10 9 8 8 6 5 3 3 2 2 2 2 2 1 4 4 3 3 3
11 10 10 10 10 10 10 12 11 10 13 15 16 16 11 8 10 11 12 10 9 10 13 13 10 9 8 8 7 6 4 3 3 2 2 1 0 2 3 5 5 5 4
5 4 5 5 6 7 7 9 12 12 14 15 16 15 15 16 18 17 15 12 9 9 10 12 9 8 8 8 7 6 5 4 3 2 2 1 1 1 2 4 5 6 5
3 3 4 6 7 8 8 8 11 13 15 15 15 15 16 18 20 19 17 16 12 10 11 11 9 8 7 7 6 6 5 3 3 1 1 2 1 1 2 4 5 6 5
3 3 4 5 7 9 8 8 11 12 14 15 14 13 15 15 13 15 15 14 11 10 11 11 10 8 8 8 6 5 4 4 2 0 1 1 2 2 2 2 4 6 4
5 2 3 6 8 9 8 10 11 12 14 14 13 13 16 16 15 14 13 12 12 13 13 12 11 9 8 7 6 4 5 3 2 1 1 1 2 2 2 2 3 4 6
4 1 2 5 8 8 7 9 12 13 13 14 13 12 15 16 16 16 15 15 15 15 15 13 11 9 8 7 6 5 5 3 0 1 1 2 2 2 2 3 4 4 7
1 0 1 4 8 8 5 7 10 12 14 15 14 15 14 16 16 14 15 16 15 16 14 12 11 9 8 7 6 4 4 1 1 1 2 2 2 2 3 3 4 5 6
3 1 2 4 7 7 5 7 9 12 15 16 15 14 14 16 15 15 15 16 16 14 13 11 10 9 8 6 5 3 3 1 2 2 3 3 3 3 4 4 5 5 6
6 4 2 3 5 5 3 4 10 14 16 16 16 15 15 15 16 16 16 15 15 14 12 10 10 9 7 6 5 3 2 2 3 3 3 4 3 4 4 5 5 6 8
8 5 3 2 2 2 2 8 13 15 16 15 15 15 15 15 15 15 15 15 15 13 11 11 10 9 7 5 4 3 3 4 4 4 3 4 4 5 5 6 6 7 7
8 5 3 2 2 5 9 11 13 14 14 14 14 15 15 15 15 15 15 15 14 13 12 11 9 7 5 5 5 5 5 5 6 5 5 4 7 10 9 8 6 7 6
6 4 3 6 7 10 11 12 12 12 13 14 15 16 17 16 15 14 14 15 14 12 11 10 8 6 5 6 4 4 4 5 6 6 5 5 7 11 14 16 16 15 12
2 2 6 8 10 11 11 12 12 13 13 14 16 17 18 17 15 15 14 14 12 11 10 8 7 6 7 5 3 5 4 5 7 7 6 6 7 11 5 11 15 15 20
2 7 10 11 11 11 12 13 13 14 15 15 16 17 17 16 15 13 13 12 10 9 8 7 6 5 6 5 2 6 6 6 7 7 6 6 6 8 10 7 7 8 12
9 10 11 13 13 13 14 16 15 15 15 16 16 15 15 15 14 13 12 10 9 8 7 6 5 3 4 4 3 6 4 5 7 6 7 8 7 14 18 10 9 11 11
11 12 13 14 14 14 15 17 16 16 16 15 15 13 13 13 13 12 10 8 7 7 6 4 3 2 1 1 3 6 2 5 5 6 7 12 14 17 19 12 11 13 12
12 12 13 13 13 14 15 16 15 15 14 15 14 13 12 12 12 10 8 8 6 5 4 3 1 1 2 0 4 7 3 4 5 5 5 7 17 20 22 20 11 15 16
12 12 12 13 12 13 15 17 15 14 14 14 14 13 11 10 10 9 8 6 5 4 2 1 1 1 1 1 5 8 9 10 5 6 5 8 20 22 23 17 16 21 18
10 10 12 14 13 11 13 18 15 13 14 14 14 12 11 9 8 8 6 5 4 3 2 2 2 2 2 4 8 10 13 15 8 7 15 18 22 21 14 15 19 15 8
10 11 13 15 13 11 11 13 14 13 15 14 12 10 9 8 7 6 5 4 4 3 3 3 3 3 4 4 3 4 7 11 9 8 13 19 19 15 13 13 11 7 8
10 11 12 15 14 12 12 11 11 13 14 12 10 8 7 7 6 5 4 4 4 4 2 2 3 4 4 7 13 10 6 6 8 11 6 6 6 5 6 7 6 7 9
11 12 13 14 14 13 12 10 9 10 12 10 8 6 5 5 4 3 2 1 1 1 2 3 4 4 8 13 15 16 16 17 18 12 6 6 6 7 9 10 11 10 10
Wind_Direction
252 243 236 242 250 247 237 209 184 178 174 170 177 187 188 166 148 141 140 140 142 141 141 135 127 124 125 129 126 118 90 35 354 2 341 272 200 184 203 187 166 210 207
247 246 238 226 228 239 240 224 197 182 177 175 178 177 151 124 112 121 127 138 143 145 145 137 134 125 118 105 97 97 110 63 31 40 15 1 338 298 245 182 189 228 203
247 249 246 238 225 224 229 229 212 188 174 164 155 134 108 93 99 119 131 137 145 144 141 134 129 126 122 120 114 103 104 130 68 59 74 71 332 322 319 270 205 189 306
243 243 243 244 238 226 217 219 214 189 168 161 163 164 166 159 162 149 141 139 143 142 136 132 131 124 121 122 118 104 90 95 112 87 68 103 112 22 319 321 337 352 339
239 243 243 240 242 236 222 208 197 175 162 163 168 172 165 140 137 137 143 144 144 138 134 133 130 126 125 121 115 109 89 73 86 83 52 22 51 205 225 282 304 323 322
253 276 293 289 271 256 243 210 183 168 162 167 168 170 163 151 149 152 155 152 146 138 132 132 128 123 121 120 120 114 101 83 74 57 49 61 19 345 303 287 304 299 293
290 307 335 324 297 268 243 211 181 167 165 172 173 174 166 158 159 159 159 155 153 149 143 137 131 125 122 121 121 121 121 109 95 67 34 29 359 326 298 288 294 298 300
282 309 323 309 291 270 239 201 178 166 169 175 174 174 159 157 160 160 159 157 155 147 140 135 128 126 125 126 125 124 129 118 127 146 89 348 300 306 300 290 307 307 292
234 258 306 308 298 273 238 196 177 169 172 171 169 166 154 155 157 155 150 148 145 143 138 132 131 129 126 128 136 137 137 134 163 151 58 341 306 327 320 312 294 279 292
208 213 321 317 309 288 244 193 176 173 169 165 162 156 151 151 153 153 153 149 145 142 136 132 130 127 124 124 122 116 111 100 49 139 147 286 300 322 319 303 291 278 280
243 338 349 326 315 300 244 187 174 168 161 151 143 144 147 148 150 150 147 142 141 139 134 133 130 127 128 128 127 131 129 143 288 296 257 270 285 291 293 294 287 277 276
302 336 3 339 321 306 262 186 170 157 144 136 137 140 141 143 142 139 137 136 135 131 129 129 125 124 121 118 120 123 128 209 268 286 289 284 290 293 288 280 277 280 281
306 317 336 333 314 309 297 151 137 131 128 131 134 137 138 136 134 134 132 132 129 125 121 117 114 110 105 98 85 69 27 336 302 284 273 272 281 285 282 285 287 287 292
297 300 296 288 308 354 77 110 116 119 123 128 134 136 134 130 130 129 128 127 123 119 112 106 104 104 103 96 72 34 355 328 316 306 290 274 265 266 270 281 274 279 284
281 277 246 181 135 100 97 102 110 114 121 129 133 130 124 122 122 122 122 120 115 111 107 105 103 103 111 89 57 20 353 341 325 312 298 288 290 291 290 288 278 288 289
283 264 184 150 130 113 109 107 110 116 124 129 128 123 120 119 118 120 119 113 110 108 108 110 112 115 108 90 49 358 338 328 316 306 301 300 295 296 305 308 308 306 306
292 176 136 124 115 114 115 113 114 117 121 123 121 120 120 120 120 120 116 112 111 110 111 116 125 124 121 107 35 343 337 312 296 290 289 295 299 309 302 298 303 303 303
64 110 111 107 105 106 107 106 108 113 116 117 117 118 121 121 119 118 113 112 115 117 118 117 109 109 139 127 37 347 346 312 296 292 292 295 295 299 302 292 300 288 293
83 94 101 105 107 108 110 110 110 111 113 114 115 119 122 121 119 116 113 114 114 110 112 113 112 105 130 131 27 354 332 307 309 319 328 322 303 305 311 315 302 295 292
79 90 96 102 105 108 112 113 114 115 116 118 118 119 119 119 116 114 110 107 106 107 109 109 112 109 115 102 356 342 324 316 317 316 312 313 311 312 316 312 302 302 299
87 93 100 104 110 114 115 114 115 116 120 120 118 115 112 111 109 104 100 100 103 109 114 130 185 200 179 331 322 328 324 293 296 298 298 301 313 313 313 311 302 300 305
99 103 107 111 117 121 121 116 114 116 116 113 109 106 102 103 101 98 94 92 95 100 105 79 0 18 56 347 316 322 324 323 313 306 296 301 313 314 313 313 309 310 315
95 99 102 101 101 105 115 115 114 115 113 108 104 100 95 92 94 96 97 93 81 69 51 32 17 3 13 343 338 336 330 325 322 308 313 315 316 315 312 312 316 321 316
97 99 101 100 96 95 100 109 114 114 110 105 101 98 95 90 83 81 76 74 70 55 39 25 14 1 351 344 350 326 313 315 313 304 308 315 314 315 320 321 319 312 304
99 103 107 106 104 104 102 102 106 108 103 99 96 93 91 93 86 80 74 68 77 89 59 22 7 348 326 316 321 323 312 308 304 312 305 303 307 318 319 312 308 309 312
104 105 105 105 105 103 98 94 94 101 104 101 93 90 89 87 89 88 77 132 135 60 336 309 309 310 311 318 324 322 319 319 319 320 309 308 313 315 317 317 316 313 310
Height
1448 1449 1451 1452 1454 1456 1460 1462 1463 1465 1469 1471 1473 1476 1480 1484 1488 1490 1493 1497 1500 1503 1506 1508 1510 1512 1513 1515 1515 1516 1516 1515 1514 1513 1512 1511 1511 1510 1509 1509 1509 1508 1507
1442 1443 1445 1446 1447 1449 1451 1455 1456 1458 1460 1463 1467 1472 1475 1479 1482 1485 1488 1493 1497 1500 1503 1505 1507 1509 1511 1512 1513 1514 1514 1513 1512 1512 1510 1510 1511 1509 1508 1507 1507 1506 1505
1434 1436 1438 1439 1440 1442 1444 1447 1450 1452 1454 1457 1462 1465 1469 1471 1475 1478 1483 1488 1492 1496 1499 1501 1504 1506 1508 1510 1511 1512 1511 1511 1510 1510 1510 1509 1509 1508 1507 1506 1505 1504 1503
1428 1429 1430 1432 1433 1435 1437 1440 1444 1446 1447 1450 1453 1456 1459 1462 1466 1470 1477 1483 1488 1492 1495 1497 1500 1503 1505 1507 1509 1510 1510 1509 1508 1507 1507 1507 1507 1506 1504 1503 1502 1501 1499
1422 1423 1424 1425 1426 1428 1430 1432 1436 1439 1440 1443 1446 1450 1453 1456 1460 1466 1473 1478 1483 1487 1490 1494 1497 1499 1502 1504 1506 1507 1508 1507 1506 1505 1504 1503 1503 1503 1501 1498 1496 1496 1494
1417 1418 1419 1419 1420 1421 1422 1424 1427 1430 1433 1437 1440 1444 1447 1449 1454 1460 1466 1472 1477 1482 1486 1490 1493 1496 1499 1501 1503 1504 1505 1505 1504 1503 1502 1501 1500 1500 1498 1495 1491 1488 1486
1414 1415 1415 1415 1416 1416 1417 1418 1420 1422 1426 1431 1435 1438 1441 1444 1448 1453 1460 1465 1470 1475 1481 1485 1489 1493 1496 1498 1500 1501 1502 1501 1501 1500 1499 1498 1497 1496 1495 1492 1487 1483 1479
1411 1411 1412 1412 1412 1411 1411 1412 1414 1416 1420 1426 1430 1434 1436 1439 1444 1450 1456 1461 1466 1471 1476 1482 1486 1490 1493 1495 1496 1497 1498 1498 1497 1496 1495 1494 1493 1492 1490 1488 1484 1478 1473
1406 1407 1408 1408 1407 1406 1406 1407 1409 1412 1416 1421 1426 1430 1432 1435 1441 1447 1453 1458 1463 1468 1473 1479 1483 1487 1489 1491 1493 1494 1494 1494 1493 1492 1491 1490 1489 1487 1485 1483 1481 1478 1470
1401 1402 1403 1403 1402 1401 1401 1401 1403 1406 1411 1416 1421 1425 1428 1433 1439 1444 1449 1454 1459 1465 1471 1476 1481 1484 1486 1488 1489 1490 1490 1490 1489 1487 1487 1486 1484 1482 1480 1478 1476 1473 1469
1397 1398 1398 1398 1398 1397 1396 1397 1399 1402 1406 1411 1416 1421 1426 1431 1436 1441 1446 1451 1457 1463 1469 1474 1478 1481 1483 1485 1486 1487 1486 1486 1484 1483 1482 1480 1479 1477 1475 1472 1470 1467 1463
1394 1394 1394 1394 1394 1393 1392 1393 1395 1398 1402 1406 1413 1419 1424 1429 1434 1439 1444 1450 1455 1462 1468 1473 1476 1478 1480 1482 1483 1483 1482 1481 1480 1479 1477 1476 1474 1471 1469 1466 1463 1461 1458
1390 1390 1389 1390 1390 1390 1389 1389 1391 1394 1398 1404 1410 1416 1422 1426 1431 1437 1442 1448 1454 1461 1466 1470 1473 1476 1478 1479 1479 1479 1478 1477 1476 1474 1472 1470 1468 1466 1463 1460 1458 1455 1452
1386 1386 1385 1386 1386 1387 1387 1387 1389 1392 1397 1403 1409 1414 1420 1425 1430 1436 1442 1447 1454 1460 1464 1468 1471 1473 1475 1476 1476 1475 1474 1473 1471 1469 1467 1465 1463 1460 1458 1455 1452 1449 1445
1382 1381 1381 1382 1383 1384 1385 1386 1388 1393 1398 1404 1409 1413 1418 1424 1430 1435 1441 1447 1453 1459 1463 1466 1469 1470 1472 1472 1472 1471 1470 1468 1466 1465 1462 1460 1458 1455 1453 1451 1447 1444 1439
1377 1377 1378 1379 1380 1382 1384 1386 1390 1395 1400 1405 1409 1412 1418 1424 1430 1435 1442 1447 1453 1458 1461 1464 1466 1467 1468 1469 1468 1467 1465 1463 1461 1459 1457 1455 1452 1450 1448 1445 1442 1439 1435
1374 1374 1375 1377 1379 1381 1384 1388 1392 1397 1402 1405 1409 1413 1418 1424 1430 1437 1443 1448 1453 1457 1460 1462 1463 1464 1465 1465 1464 1462 1461 1459 1456 1454 1451 1449 1447 1444 1441 1438 1435 1432 1429
1373 1373 1375 1377 1379 1382 1386 1390 1394 1398 1402 1406 1410 1414 1420 1426 1433 1440 1445 1449 1452 1455 1458 1460 1461 1461 1462 1461 1460 1458 1456 1454 1451 1449 1447 1444 1441 1438 1435 1432 1428 1425 1422
1375 1375 1376 1378 1381 1384 1388 1391 1396 1400 1404 1408 1412 1418 1425 1431 1437 1441 1445 1449 1452 1455 1457 1458 1458 1458 1458 1457 1455 1453 1451 1448 1446 1444 1442 1439 1436 1433 1431 1427 1422 1417 1414
1378 1379 1380 1382 1384 1388 1391 1394 1399 1404 1408 1413 1418 1424 1429 1435 1439 1443 1446 1449 1452 1454 1455 1456 1456 1456 1454 1453 1451 1449 1446 1443 1441 1438 1436 1433 1431 1428 1425 1422 1417 1411 1407
1383 1383 1384 1386 1389 1393 1396 1400 1404 1408 1413 1418 1423 1428 1434 1438 1441 1444 1447 1449 1451 1452 1453 1453 1453 1452 1451 1449 1447 1445 1441 1438 1435 1433 1430 1428 1425 1422 1419 1416 1412 1406 1402
1388 1389 1390 1393 1396 1399 1402 1405 1409 1414 1419 1424 1429 1433 1437 1440 1443 1445 1447 1449 1450 1451 1451 1451 1450 1449 1448 1446 1443 1441 1438 1436 1432 1429 1425 1422 1420 1417 1414 1410 1406 1402 1398
1396 1398 1398 1400 1404 1407 1410 1412 1417 1421 1425 1429 1433 1436 1439 1442 1444 1446 1447 1448 1449 1449 1449 1448 1448 1446 1445 1442 1440 1437 1434 1431 1428 1424 1421 1418 1415 1411 1408 1405 1401 1397 1392
1401 1403 1404 1406 1410 1414 1417 1419 1422 1426 1430 1432 1435 1438 1441 1443 1445 1446 1447 1448 1448 1448 1447 1446 1445 1443 1441 1438 1436 1433 1429 1426 1423 1420 1416 1414 1410 1407 1404 1400 1396 1392 1387
1405 1407 1409 1411 1415 1419 1422 1425 1428 1431 1433 1435 1438 1440 1443 1444 1446 1447 1447 1447 1446 1446 1445 1443 1442 1439 1437 1434 1432 1429 1425 1422 1419 1416 1412 1409 1406 1402 1398 1394 1391 1387 1382
1408 1411 1413 1416 1419 1423 1426 1429 1432 1435 1436 1438 1440 1442 1444 1445 1446 1446 1446 1445 1445 1444 1442 1440 1438 1435 1433 1430 1427 1425 1421 1418 1416 1412 1408 1405 1402 1398 1394 1390 1385 1382 1377